Regional Weather Roundup
Issued by NWS

Home | Current Version | Previous Version | Graphics & Text | Print | Product List | Glossary On
Versions: 1 2 3 4 5 6 7 8 9 10 11 12 13 14 15 16 17 18 19 20 21 22 23 24 25 26 27 28 29 30 31 32 33 34 35 36 37 38 39 40 41 42 43 44 45 46 47 48 49 50
000
ASUS45 KCYS 230210
RWRWY

WYOMING REGIONAL WEATHER ROUNDUP
NATIONAL WEATHER SERVICE CHEYENNE WY
800 PM MDT SAT APR 22 2017

NOTE:  "FAIR" INDICATES FEW OR NO CLOUDS BELOW 12,000 FEET
WITH NO SIGNIFICANT WEATHER AND/OR OBSTRUCTIONS TO VISIBILITY.

WYZ001-230300-
YELLOWSTONE NATIONAL PARK

CITY           SKY/WX    TMP DP  RH WIND       PRES   REMARKS
LK YELLOWSTONE   N/A     40  23  50 VRB5      30.11F
W YELLOWSTONE  NOT AVBL

$$
WYZ002>013-054>058-071-098>099-230300-
NORTHERN WYOMING

CITY           SKY/WX    TMP DP  RH WIND       PRES   REMARKS
JACKSON        CLEAR     50  27  40 S7        30.07S
CODY           FAIR      50  37  61 SE9       29.98F
GREYBULL       FAIR      54  36  50 E8        29.97F
WORLAND        FAIR      49  42  77 E8        29.97F
SHERIDAN       FAIR      47  40  76 W7        29.96F
BUFFALO        FAIR      49  36  61 W5        30.00S
GILLETTE       FAIR      50  37  61 S10       30.01F
HULETT         FAIR      54  34  47 SW9       30.05F
NEWCASTLE      FAIR      52  30  43 S10       30.08S

$$
WYZ014>020-022>026-101>103-230300-
CENTRAL WYOMING

CITY           SKY/WX    TMP DP  RH WIND       PRES   REMARKS
BIG PINEY      FAIR      45  21  38 S8        30.11F
PINEDALE       FAIR      45  19  36 S3        30.13S
DUBOIS         FAIR      45  21  39 NW13      30.06F
LANDER         FAIR      54  25  32 MISG      29.98F
RIVERTON       FAIR      54  28  36 S5        30.00F
CASPER         FAIR      49  31  49 S12G20    30.05F
DOUGLAS        FAIR      51  31  46 SE13      30.09F

$$
WYZ021-027>030-104>119-230300-
SOUTHERN WYOMING

CITY           SKY/WX    TMP DP  RH WIND       PRES   REMARKS
EVANSTON       FAIR      49  24  37 SW9       30.09S
KEMMERER         N/A     48  21  34 CALM      30.10S
FORT BRIDGER   CLEAR     52  27  37 CALM      30.12S
ROCK SPRINGS   FAIR      50  18  28 SE9       30.09F
DIXON            N/A     50  23  34 SW5       30.15S
RAWLINS        FAIR      49  19  30 SW10      30.11F
SARATOGA       FAIR      46  21  36 SW7       30.13F
LARAMIE        FAIR      40  28  62 SE16      30.16F WCI  31
CHEYENNE       FAIR      45  30  55 S14       30.18F
TORRINGTON     FAIR      51  30  44 S14       30.12F
PINE BLUFFS    FAIR      45  32  61 S12       30.19F

$$



USA.gov is the U.S. government's official web portal to all federal, state and local government web resources and services.